Location: ??????????
(44.2167°N, 135.5333°E)
Time: 15:23:36
(UTC+00:00)

Cosmos 2219 - Pass Details

Date: 15 June 2025
Orbit: 832 x 859 km, 71.1° (Epoch: 15 July)

Event Time Altitude Azimuth Distance (km) Brightness Sun altitude
Exits shadow 13:18:45 - 215° (SW) 2,555 5.4 -18.7°
Reaches altitude 10° 13:18:57 10° 216° (SW) 2,480 5.3 -18.7°
Maximum altitude 13:24:37 65° 298° (WNW) 940 3.6 -19.1°
Drops below altitude 10° 13:30:21 10° 20° (NNE) 2,504 6.3 -19.5°
Sets 13:32:51 0° 24° (NNE) 3,444 7.1 -19.7°
